{"data":{"norad_id":66129,"intl_designator":"2025-237R","name":"STARLINK-35632","alt_names":[],"object_type":"PAYLOAD","status":"ACTIVE","operator":null,"country":"US","launch_date":"2025-10-22","launch_site_code":"AFWTR","launch_vehicle":null,"mission":null,"orbit_class":"UNKNOWN","rcs_meters":null,"size_class":null,"mass_kg":null,"dimensions":null,"purposes":["comms"],"wikipedia_slug":null,"has_3d_model":false,"image_url":null,"decayed_at":null,"tle_current":{"epoch":"2026-05-25T03:20:55.309920Z","epoch_age_seconds":60176,"freshness":"FRESH","line1":"1 66129U 25237R   26145.13952905  .00034117  00000+0  11584-2 0  9991","line2":"2 66129  53.1589  44.6427 0000846  80.7475 279.3621 15.30209115 34311","mean_motion":15.30209115,"eccentricity":8.46e-5,"inclination_deg":53.1589,"raan_deg":44.6427,"arg_perigee_deg":80.7475,"mean_anomaly_deg":279.3621,"bstar":0.0011584,"rev_number":3431,"period_min":94.104785148924,"perigee_km":474.60806252478,"apogee_km":475.76764509004,"semimajor_km":6853.3248538074,"source":"CELESTRAK","updated_at":"2026-05-25T13:38:21.065072Z"}}}